SCOUT A R/B, 2755

Orbit data source: Space-Track

SCOUT A R/B, 2755 is space debris in LEO originally from a launch on Fri, 14 Apr 1967 UTC launched from the Air Force Western Test Range (AFWTR). Debris objects in space refer to the collection of defunct objects orbiting the Earth. Examples of debris include non-operational satellites, rocket bodies, and fragments generated from explosions, collisions, or faulty payload assembly.

Loading next visibility...
Identifier
2755, 1967-034B
Orbit
LEO
Last TLE update
21 hours ago
Origin
Manufacturer
ABL
Mission
Spacecraft
Bus & Motor
ALTAIR, Unknown motor
Mass
33 kg wet, 33 kg dry
Launch date (UTC)
1967-04-14 (58 years ago)
Launch vehicle
Unknown
Launch site
Air Force Western Test Range (AFWTR)
Object type
Payload
Rocket body
Debris
Shape & HBR
Cyl, 1.5 m
Radar Cross Section
0.687 m², Medium (>0.1 m² and < 1m²)

Expand to show TLE details & history

TLE from 21 hours ago
0 SCOUT A R/B
1 02755U 67034B   25185.88986935 -.00000018  00000-0 -38711-4 0  9991
2 02755  90.2566  46.7821 0023788 284.6325  86.1550 13.53974602875044
Epoch: 2025-07-04T21:21Z
TLE epoch observation values (Epoch: 2025-07-04T21:21:24.711Z)
Latitude
11.00999°
Longitude
163.24369°
Altitude
1,058.733 km
Speed
7.324 km/s
True Right ascension
03h 06m 55s
True Declination
10° 56' 54"
Sunlit
Object was in daylight at epoch
Visualization orbit readout
Latitude
-34.68199°
Longitude
-16.86103°
Altitude
1,064.067 km
Speed
7.322 km/s
Apparent Right ascension
16h 17m 45s
Apparent Declination
-38° 39' 20"
Sunlit
Object is in full shadow
Visualization observer readout
Local Sidereal Time
05:47:42
Azimuth
93.086° ESE
Elevation
-72.594°
Doppler factor
1
Orbital elements
Apogee altitude
1,072.396 km
Perigee altitude
1,037.034 km
Semi-major axis
7,432.852 km
Eccentricity
0.00238
Inclination
90.2566°
RAAN
46.7821°
Arg. of periapsis
284.6325°
True anomaly
Unknown
Mean anomaly
86.155°
Eccentric anomaly
Unknown
Mean motion
3.38696 °/min
Orbital period
106.29 mins
BSTAR
-0.000038711
Loading maneuver chart data...
Loading SW <> Apogee altitude chart data...
Loading historical data...
Loading historical data...
Loading historical data...
Loading historical data...
Loading historical data...
Loading historical data...
Loading historical data...

SCOUT A R/B Visibility forecast

Observer location: undefined°, undefined°

Span
Click to sort rows by Start time (UTC) header in descending order
Start Az.
Max El. time (UTC)
Max El. Az.
Max El.
End time (UTC)
End Az.
12 mins2025-07-06 02:16:16.259Z18.363° NNE2025-07-06 02:22:16.259Z84.311° E32.02°2025-07-06 02:28:16.259Z152.357° SSE
9 mins2025-07-06 04:04:16.259Z334.34° NNW2025-07-06 04:08:16.259Z283.515° WNW28.887°2025-07-06 04:13:16.259Z225.622° WSW
10 mins2025-07-06 14:13:16.259Z137.464° SSE2025-07-06 14:18:16.259Z71.231° E31.531°2025-07-06 14:23:16.259Z16.006° NNE
10 mins2025-07-06 15:59:16.259Z218.212° SW2025-07-06 16:04:16.259Z280.073° WNW28.977°2025-07-06 16:09:16.259Z335.798° NNW
|